Hovedside
METAR-TAF:

METAR-TAF

Lufthavner :

Tacoma Narrows Airport

Tacoma, Washington, USA

breddegrad: 47-16-03N, lengdegrad: 122-34-34W, høyde over havet: 96 m

Gjeldene værobservasjon

Denne rapporten ble laget for 14 minutter siden, klokken 11:53 UTC
Vind 7 kt fra Sør-sørvest
Temperatur 8°C
Luftfuktighet 81%
Trykk 1014 hPa
Sikt: 16.1 km
Overskyet i en høyde av 1300 ft

METAR: KTIW 221153Z AUTO 20007KT 10SM OVC013 08/05 A2993 RMK AO2 SLP133 T00780050 10100 20078 53003

Tid: 05:07 (12:07 UTC)


TAF: fraværende

Værobservasjoner og værvarsel for over 4000 flyplasser (METAR- og TAF-rapporter).

Tilgjengelige stasjoner er representert av de røde og gule prikkene på kartet.

Hold musepekeren over prikken for å se navnet på stasjonen.

Klikk så for å se værobservasjoner og -varsler.

For å forandre kartet kan du klikke på den grønne knappen med svart kryss for å zoome inn, på den grønne knappen med strek for å zoome ut, eller på de grønne pilene for å se tilstøtende kart.


METAR-TAF: